<?xml version="1.0" encoding="UTF-8" standalone="no" ?>
<gpx xmlns="http://www.topografix.com/GPX/1/1" xmlns:xsi="http://www.w3.org/2001/XMLSchema-instance" xsi:schemaLocation="http://www.topografix.com/GPX/1/1 http://www.topografix.com/GPX/1/1/gpx.xsd" version="1.1" creator="VisuGPX - https://www.visugpx.com">
  <metadata>
    <name>Bourgueil_ChouzeLaChapelle_20-24km</name>
    <desc><![CDATA[gnerando idor: 8178174_8178187_8178228]]></desc>
  </metadata>
  <trk>
    <name><![CDATA[Bourgueil_Chouze_24km-8178174]]></name>
    <extensions>
      <line xmlns="http://www.topografix.com/GPX/gpx_style/0/2">
        <color>0000FF</color>
        <width>4</width>
      </line>
    </extensions>
    <trkseg>
      <trkpt lat="47.28249" lon="0.16861">
        <ele>48</ele>
        <time>2023-10-31T12:56:53Z</time>
      </trkpt>
      <trkpt lat="47.28255" lon="0.16789">
        <ele>47</ele>
        <time>2023-10-31T12:57:59Z</time>
      </trkpt>
      <trkpt lat="47.28179" lon="0.16759">
        <ele>46</ele>
        <time>2023-10-31T12:59:44Z</time>
      </trkpt>
      <trkpt lat="47.28118" lon="0.16712">
        <ele>42</ele>
        <time>2023-10-31T13:01:16Z</time>
      </trkpt>
      <trkpt lat="47.2815" lon="0.16291">
        <ele>41</ele>
        <time>2023-10-31T13:07:39Z</time>
      </trkpt>
      <trkpt lat="47.27981" lon="0.16265">
        <ele>33</ele>
        <time>2023-10-31T13:11:26Z</time>
      </trkpt>
      <trkpt lat="47.27856" lon="0.16179">
        <ele>30</ele>
        <time>2023-10-31T13:14:30Z</time>
      </trkpt>
      <trkpt lat="47.27821" lon="0.16021">
        <ele>28</ele>
        <time>2023-10-31T13:17:00Z</time>
      </trkpt>
      <trkpt lat="47.27733" lon="0.16016">
        <ele>28</ele>
        <time>2023-10-31T13:18:58Z</time>
      </trkpt>
      <trkpt lat="47.27567" lon="0.1584">
        <ele>29</ele>
        <time>2023-10-31T13:23:31Z</time>
      </trkpt>
      <trkpt lat="47.26988" lon="0.15699">
        <ele>28</ele>
        <time>2023-10-31T13:36:34Z</time>
      </trkpt>
      <trkpt lat="47.26912" lon="0.15952">
        <ele>27</ele>
        <time>2023-10-31T13:40:44Z</time>
      </trkpt>
      <trkpt lat="47.26406" lon="0.15613">
        <ele>27</ele>
        <time>2023-10-31T13:53:06Z</time>
      </trkpt>
      <trkpt lat="47.26216" lon="0.16064">
        <ele>26</ele>
        <time>2023-10-31T14:01:07Z</time>
      </trkpt>
      <trkpt lat="47.26123" lon="0.16488">
        <ele>31</ele>
        <time>2023-10-31T14:07:50Z</time>
      </trkpt>
      <trkpt lat="47.25995" lon="0.17209">
        <ele>30</ele>
        <time>2023-10-31T14:19:05Z</time>
      </trkpt>
      <trkpt lat="47.25966" lon="0.17742">
        <ele>29</ele>
        <time>2023-10-31T14:27:10Z</time>
      </trkpt>
      <trkpt lat="47.2575" lon="0.17759">
        <ele>31</ele>
        <time>2023-10-31T14:31:58Z</time>
      </trkpt>
      <trkpt lat="47.25535" lon="0.17845">
        <ele>29</ele>
        <time>2023-10-31T14:36:56Z</time>
      </trkpt>
      <trkpt lat="47.25407" lon="0.18046">
        <ele>30</ele>
        <time>2023-10-31T14:41:05Z</time>
      </trkpt>
      <trkpt lat="47.2536" lon="0.17669">
        <ele>29</ele>
        <time>2023-10-31T14:46:52Z</time>
      </trkpt>
      <trkpt lat="47.25313" lon="0.17617">
        <ele>28</ele>
        <time>2023-10-31T14:48:11Z</time>
      </trkpt>
      <trkpt lat="47.25293" lon="0.17686">
        <ele>29</ele>
        <time>2023-10-31T14:49:19Z</time>
      </trkpt>
      <trkpt lat="47.2515" lon="0.17729">
        <ele>29</ele>
        <time>2023-10-31T14:52:34Z</time>
      </trkpt>
      <trkpt lat="47.25139" lon="0.17819">
        <ele>30</ele>
        <time>2023-10-31T14:53:56Z</time>
      </trkpt>
      <trkpt lat="47.24859" lon="0.17857">
        <ele>30</ele>
        <time>2023-10-31T15:00:12Z</time>
      </trkpt>
      <trkpt lat="47.24821" lon="0.17789">
        <ele>30</ele>
        <time>2023-10-31T15:01:31Z</time>
      </trkpt>
      <trkpt lat="47.24713" lon="0.17767">
        <ele>30</ele>
        <time>2023-10-31T15:03:57Z</time>
      </trkpt>
      <trkpt lat="47.24588" lon="0.17866">
        <ele>30</ele>
        <time>2023-10-31T15:07:06Z</time>
      </trkpt>
      <trkpt lat="47.24346" lon="0.17621">
        <ele>30</ele>
        <time>2023-10-31T15:13:38Z</time>
      </trkpt>
      <trkpt lat="47.24285" lon="0.17621">
        <ele>30</ele>
        <time>2023-10-31T15:15:00Z</time>
      </trkpt>
      <trkpt lat="47.24308" lon="0.17428">
        <ele>29</ele>
        <time>2023-10-31T15:17:57Z</time>
      </trkpt>
      <trkpt lat="47.24384" lon="0.17364">
        <ele>29</ele>
        <time>2023-10-31T15:19:54Z</time>
      </trkpt>
      <trkpt lat="47.24431" lon="0.17124">
        <ele>31</ele>
        <time>2023-10-31T15:23:40Z</time>
      </trkpt>
      <trkpt lat="47.24369" lon="0.17059">
        <ele>31</ele>
        <time>2023-10-31T15:25:22Z</time>
      </trkpt>
      <trkpt lat="47.24457" lon="0.1654">
        <ele>31</ele>
        <time>2023-10-31T15:33:26Z</time>
      </trkpt>
      <trkpt lat="47.2462" lon="0.16574">
        <ele>30</ele>
        <time>2023-10-31T15:37:06Z</time>
      </trkpt>
      <trkpt lat="47.24626" lon="0.16265">
        <ele>32</ele>
        <time>2023-10-31T15:41:46Z</time>
      </trkpt>
      <trkpt lat="47.24166" lon="0.16192">
        <ele>38</ele>
        <time>2023-10-31T15:52:04Z</time>
      </trkpt>
      <trkpt lat="47.24166" lon="0.16136">
        <ele>37</ele>
        <time>2023-10-31T15:52:54Z</time>
      </trkpt>
      <trkpt lat="47.24017" lon="0.16055">
        <ele>39</ele>
        <time>2023-10-31T15:56:26Z</time>
      </trkpt>
      <trkpt lat="47.24046" lon="0.159">
        <ele>36</ele>
        <time>2023-10-31T15:58:52Z</time>
      </trkpt>
      <trkpt lat="47.23994" lon="0.15596">
        <ele>33</ele>
        <time>2023-10-31T16:03:36Z</time>
      </trkpt>
      <trkpt lat="47.24049" lon="0.15437">
        <ele>33</ele>
        <time>2023-10-31T16:06:18Z</time>
      </trkpt>
      <trkpt lat="47.23988" lon="0.15145">
        <ele>34</ele>
        <time>2023-10-31T16:10:54Z</time>
      </trkpt>
      <trkpt lat="47.24023" lon="0.14926">
        <ele>34</ele>
        <time>2023-10-31T16:14:18Z</time>
      </trkpt>
      <trkpt lat="47.24014" lon="0.1475">
        <ele>37</ele>
        <time>2023-10-31T16:16:58Z</time>
      </trkpt>
      <trkpt lat="47.24145" lon="0.1466">
        <ele>33</ele>
        <time>2023-10-31T16:20:11Z</time>
      </trkpt>
      <trkpt lat="47.24081" lon="0.14102">
        <ele>32</ele>
        <time>2023-10-31T16:28:44Z</time>
      </trkpt>
      <trkpt lat="47.2395" lon="0.13725">
        <ele>34</ele>
        <time>2023-10-31T16:35:07Z</time>
      </trkpt>
      <trkpt lat="47.23982" lon="0.1369">
        <ele>33</ele>
        <time>2023-10-31T16:36:01Z</time>
      </trkpt>
      <trkpt lat="47.23918" lon="0.1369">
        <ele>34</ele>
        <time>2023-10-31T16:37:26Z</time>
      </trkpt>
      <trkpt lat="47.23874" lon="0.1339">
        <ele>33</ele>
        <time>2023-10-31T16:42:04Z</time>
      </trkpt>
      <trkpt lat="47.23761" lon="0.13025">
        <ele>34</ele>
        <time>2023-10-31T16:48:08Z</time>
      </trkpt>
      <trkpt lat="47.23492" lon="0.12017">
        <ele>34</ele>
        <time>2023-10-31T17:04:29Z</time>
      </trkpt>
      <trkpt lat="47.23886" lon="0.11914">
        <ele>31</ele>
        <time>2023-10-31T17:13:23Z</time>
      </trkpt>
      <trkpt lat="47.23825" lon="0.11472">
        <ele>32</ele>
        <time>2023-10-31T17:20:12Z</time>
      </trkpt>
      <trkpt lat="47.23973" lon="0.11411">
        <ele>31</ele>
        <time>2023-10-31T17:23:37Z</time>
      </trkpt>
      <trkpt lat="47.24294" lon="0.11055">
        <ele>30</ele>
        <time>2023-10-31T17:32:33Z</time>
      </trkpt>
      <trkpt lat="47.24533" lon="0.11051">
        <ele>28</ele>
        <time>2023-10-31T17:37:52Z</time>
      </trkpt>
      <trkpt lat="47.24573" lon="0.10824">
        <ele>30</ele>
        <time>2023-10-31T17:41:24Z</time>
      </trkpt>
      <trkpt lat="47.24614" lon="0.10763">
        <ele>28</ele>
        <time>2023-10-31T17:42:42Z</time>
      </trkpt>
      <trkpt lat="47.24538" lon="0.10665">
        <ele>29</ele>
        <time>2023-10-31T17:44:57Z</time>
      </trkpt>
      <trkpt lat="47.24576" lon="0.10334">
        <ele>28</ele>
        <time>2023-10-31T17:50:01Z</time>
      </trkpt>
      <trkpt lat="47.24806" lon="0.10343">
        <ele>28</ele>
        <time>2023-10-31T17:55:08Z</time>
      </trkpt>
      <trkpt lat="47.24871" lon="0.10412">
        <ele>26</ele>
        <time>2023-10-31T17:56:55Z</time>
      </trkpt>
      <trkpt lat="47.25098" lon="0.10394">
        <ele>27</ele>
        <time>2023-10-31T18:01:58Z</time>
      </trkpt>
      <trkpt lat="47.25319" lon="0.10334">
        <ele>27</ele>
        <time>2023-10-31T18:06:58Z</time>
      </trkpt>
      <trkpt lat="47.25398" lon="0.10532">
        <ele>27</ele>
        <time>2023-10-31T18:10:26Z</time>
      </trkpt>
      <trkpt lat="47.25937" lon="0.10678">
        <ele>30</ele>
        <time>2023-10-31T18:22:37Z</time>
      </trkpt>
      <trkpt lat="47.26042" lon="0.10909">
        <ele>30</ele>
        <time>2023-10-31T18:26:49Z</time>
      </trkpt>
      <trkpt lat="47.26333" lon="0.10802">
        <ele>30</ele>
        <time>2023-10-31T18:33:30Z</time>
      </trkpt>
      <trkpt lat="47.26627" lon="0.10763">
        <ele>27</ele>
        <time>2023-10-31T18:40:03Z</time>
      </trkpt>
      <trkpt lat="47.26936" lon="0.10952">
        <ele>27</ele>
        <time>2023-10-31T18:47:30Z</time>
      </trkpt>
      <trkpt lat="47.27157" lon="0.10969">
        <ele>28</ele>
        <time>2023-10-31T18:52:25Z</time>
      </trkpt>
      <trkpt lat="47.27337" lon="0.11128">
        <ele>27</ele>
        <time>2023-10-31T18:57:05Z</time>
      </trkpt>
      <trkpt lat="47.27646" lon="0.11167">
        <ele>28</ele>
        <time>2023-10-31T19:03:59Z</time>
      </trkpt>
      <trkpt lat="47.27795" lon="0.11502">
        <ele>27</ele>
        <time>2023-10-31T19:10:02Z</time>
      </trkpt>
      <trkpt lat="47.27917" lon="0.11566">
        <ele>28</ele>
        <time>2023-10-31T19:12:55Z</time>
      </trkpt>
      <trkpt lat="47.28019" lon="0.11519">
        <ele>32</ele>
        <time>2023-10-31T19:15:17Z</time>
      </trkpt>
      <trkpt lat="47.28016" lon="0.1166">
        <ele>32</ele>
        <time>2023-10-31T19:17:25Z</time>
      </trkpt>
      <trkpt lat="47.28086" lon="0.11746">
        <ele>34</ele>
        <time>2023-10-31T19:19:27Z</time>
      </trkpt>
      <trkpt lat="47.28013" lon="0.11901">
        <ele>32</ele>
        <time>2023-10-31T19:22:17Z</time>
      </trkpt>
      <trkpt lat="47.28097" lon="0.12025">
        <ele>38</ele>
        <time>2023-10-31T19:24:56Z</time>
      </trkpt>
      <trkpt lat="47.28118" lon="0.12532">
        <ele>39</ele>
        <time>2023-10-31T19:32:36Z</time>
      </trkpt>
      <trkpt lat="47.28138" lon="0.12986">
        <ele>38</ele>
        <time>2023-10-31T19:39:28Z</time>
      </trkpt>
      <trkpt lat="47.27797" lon="0.13081">
        <ele>27</ele>
        <time>2023-10-31T19:47:11Z</time>
      </trkpt>
      <trkpt lat="47.2776" lon="0.13171">
        <ele>27</ele>
        <time>2023-10-31T19:48:46Z</time>
      </trkpt>
      <trkpt lat="47.27634" lon="0.13261">
        <ele>29</ele>
        <time>2023-10-31T19:51:53Z</time>
      </trkpt>
      <trkpt lat="47.27707" lon="0.1357">
        <ele>28</ele>
        <time>2023-10-31T19:56:49Z</time>
      </trkpt>
      <trkpt lat="47.2771" lon="0.13922">
        <ele>28</ele>
        <time>2023-10-31T20:02:08Z</time>
      </trkpt>
      <trkpt lat="47.27652" lon="0.14527">
        <ele>28</ele>
        <time>2023-10-31T20:11:21Z</time>
      </trkpt>
      <trkpt lat="47.27742" lon="0.14669">
        <ele>29</ele>
        <time>2023-10-31T20:14:17Z</time>
      </trkpt>
      <trkpt lat="47.27716" lon="0.15064">
        <ele>28</ele>
        <time>2023-10-31T20:20:16Z</time>
      </trkpt>
      <trkpt lat="47.27745" lon="0.1542">
        <ele>31</ele>
        <time>2023-10-31T20:25:41Z</time>
      </trkpt>
      <trkpt lat="47.27966" lon="0.15476">
        <ele>29</ele>
        <time>2023-10-31T20:30:40Z</time>
      </trkpt>
      <trkpt lat="47.27934" lon="0.15819">
        <ele>31</ele>
        <time>2023-10-31T20:35:54Z</time>
      </trkpt>
      <trkpt lat="47.27963" lon="0.166">
        <ele>32</ele>
        <time>2023-10-31T20:47:42Z</time>
      </trkpt>
      <trkpt lat="47.27984" lon="0.16909">
        <ele>34</ele>
        <time>2023-10-31T20:52:23Z</time>
      </trkpt>
      <trkpt lat="47.28147" lon="0.16896">
        <ele>45</ele>
        <time>2023-10-31T20:56:01Z</time>
      </trkpt>
      <trkpt lat="47.28272" lon="0.16939">
        <ele>47</ele>
        <time>2023-10-31T20:58:52Z</time>
      </trkpt>
    </trkseg>
  </trk>
</gpx>